Terminal Aerodrome Forecast
Issued by NWS Lake Charles, LA

Home | Current Version | Previous Version | Text Only | Print | Product List | Glossary On
Versions: 1 2 3 4 5 6 7 8 9 10 11 12
000
FTUS44 KLCH 012300 RRA
TAFLCH
TAF
KLCH 012338Z 0200/0224 VRB05KT P6SM SCT025 BKN060
     FM020400 VRB04KT P6SM SCT050 BKN200
     FM021500 32004KT P6SM VCSH FEW015 BKN050 OVC200=

USA.gov is the U.S. government's official web portal to all federal, state and local government web resources and services.